Year,Month,Day,Hour,Minute,Value (Times are PST for temperature in C)
2015,06,28,00,00,24.70
2015,06,28,00,01,24.70
2015,06,28,00,02,24.70
2015,06,28,00,03,24.70
2015,06,28,00,04,24.70
2015,06,28,00,05,24.70
2015,06,28,00,06,24.70
2015,06,28,00,07,24.70
2015,06,28,00,08,24.70
2015,06,28,00,09,24.70
2015,06,28,00,10,24.70
2015,06,28,00,11,24.70
2015,06,28,00,12,24.70
2015,06,28,00,13,24.70
2015,06,28,00,14,24.80
2015,06,28,00,15,24.80
2015,06,28,00,16,24.80
2015,06,28,00,17,24.80
2015,06,28,00,18,24.80
2015,06,28,00,19,24.80
2015,06,28,00,20,24.80
2015,06,28,00,21,24.70
2015,06,28,00,22,24.70
2015,06,28,00,23,24.70
2015,06,28,00,24,24.70
2015,06,28,00,25,24.70
2015,06,28,00,26,24.70
2015,06,28,00,27,24.70
2015,06,28,00,28,24.60
2015,06,28,00,29,24.60
2015,06,28,00,30,24.60
2015,06,28,00,31,24.60
2015,06,28,00,32,24.50
2015,06,28,00,33,24.50
2015,06,28,00,34,24.50
2015,06,28,00,35,24.40
2015,06,28,00,36,24.40
2015,06,28,00,37,24.40
2015,06,28,00,38,24.40
2015,06,28,00,39,24.30
2015,06,28,00,40,24.30
2015,06,28,00,41,24.30
2015,06,28,00,42,24.30
2015,06,28,00,43,24.30
2015,06,28,00,44,24.30
2015,06,28,00,45,24.30
2015,06,28,00,46,24.30
2015,06,28,00,47,24.30
2015,06,28,00,48,24.20
2015,06,28,00,49,24.20
2015,06,28,00,50,24.20
2015,06,28,00,51,24.20
2015,06,28,00,52,24.20
2015,06,28,00,53,24.20
2015,06,28,00,54,24.20
2015,06,28,00,55,24.20
2015,06,28,00,56,24.20
2015,06,28,00,57,24.20
2015,06,28,00,58,24.20
2015,06,28,00,59,24.20
2015,06,28,01,00,24.20
2015,06,28,01,01,24.20
2015,06,28,01,02,24.10
2015,06,28,01,03,24.10
2015,06,28,01,04,24.10
2015,06,28,01,05,24.10
2015,06,28,01,06,24.00
2015,06,28,01,07,24.00
2015,06,28,01,08,24.00
2015,06,28,01,09,23.90
2015,06,28,01,10,23.90
2015,06,28,01,11,23.90
2015,06,28,01,12,23.90
2015,06,28,01,13,23.90
2015,06,28,01,14,23.90
2015,06,28,01,15,23.90
2015,06,28,01,16,23.90
2015,06,28,01,17,23.90
2015,06,28,01,18,23.90
2015,06,28,01,19,23.90
2015,06,28,01,20,23.90
2015,06,28,01,21,23.90
2015,06,28,01,22,23.90
2015,06,28,01,23,23.90
2015,06,28,01,24,23.90
2015,06,28,01,25,23.90
2015,06,28,01,26,23.90
2015,06,28,01,27,23.90
2015,06,28,01,28,23.90
2015,06,28,01,29,23.90
2015,06,28,01,30,23.80
2015,06,28,01,31,23.80
2015,06,28,01,32,23.80
2015,06,28,01,33,23.80
2015,06,28,01,34,23.80
2015,06,28,01,35,23.80
2015,06,28,01,36,23.80
2015,06,28,01,37,23.80
2015,06,28,01,38,23.90
2015,06,28,01,39,23.90
2015,06,28,01,40,23.90
2015,06,28,01,41,23.90
2015,06,28,01,42,24.00
2015,06,28,01,43,24.00
2015,06,28,01,44,24.00
2015,06,28,01,45,23.90
2015,06,28,01,46,23.90
2015,06,28,01,47,23.90
2015,06,28,01,48,23.90
2015,06,28,01,49,23.90
2015,06,28,01,50,23.90
2015,06,28,01,51,23.80
2015,06,28,01,52,23.80
2015,06,28,01,53,23.80
2015,06,28,01,54,23.80
2015,06,28,01,55,23.70
2015,06,28,01,56,23.70
2015,06,28,01,57,23.70
2015,06,28,01,58,23.70
2015,06,28,01,59,23.70
2015,06,28,02,00,23.70
2015,06,28,02,01,23.70
2015,06,28,02,02,23.70
2015,06,28,02,03,23.70
2015,06,28,02,04,23.70
2015,06,28,02,05,23.70
2015,06,28,02,06,23.70
2015,06,28,02,07,23.70
2015,06,28,02,08,23.70
2015,06,28,02,09,23.60
2015,06,28,02,10,23.70
2015,06,28,02,11,23.70
2015,06,28,02,12,23.70
2015,06,28,02,13,23.70
2015,06,28,02,14,23.60
2015,06,28,02,15,23.60
2015,06,28,02,16,23.60
2015,06,28,02,17,23.60
2015,06,28,02,18,23.60
2015,06,28,02,19,23.60
2015,06,28,02,20,23.60
2015,06,28,02,21,23.50
2015,06,28,02,22,23.50
2015,06,28,02,23,23.50
2015,06,28,02,24,23.50
2015,06,28,02,25,23.40
2015,06,28,02,26,23.40
2015,06,28,02,27,23.40
2015,06,28,02,28,23.40
2015,06,28,02,29,23.30
2015,06,28,02,30,23.30
2015,06,28,02,31,23.30
2015,06,28,02,32,23.20
2015,06,28,02,33,23.20
2015,06,28,02,34,23.10
2015,06,28,02,35,23.10
2015,06,28,02,36,23.00
2015,06,28,02,37,23.00
2015,06,28,02,38,22.90
2015,06,28,02,39,22.80
2015,06,28,02,40,22.70
2015,06,28,02,41,22.70
2015,06,28,02,42,22.60
2015,06,28,02,43,22.50
2015,06,28,02,44,22.50
2015,06,28,02,45,22.40
2015,06,28,02,46,22.30
2015,06,28,02,47,22.30
2015,06,28,02,48,22.20
2015,06,28,02,49,22.10
2015,06,28,02,50,22.10
2015,06,28,02,51,22.00
2015,06,28,02,52,21.90
2015,06,28,02,53,22.00
2015,06,28,02,54,22.00
2015,06,28,02,55,22.10
2015,06,28,02,56,22.20
2015,06,28,02,57,22.30
2015,06,28,02,58,22.40
2015,06,28,02,59,22.40
2015,06,28,03,00,22.50
2015,06,28,03,01,22.60
2015,06,28,03,02,22.70
2015,06,28,03,03,22.70
2015,06,28,03,04,22.80
2015,06,28,03,05,22.80
2015,06,28,03,06,22.80
2015,06,28,03,07,22.80
2015,06,28,03,08,22.80
2015,06,28,03,09,22.80
2015,06,28,03,10,22.70
2015,06,28,03,11,22.70
2015,06,28,03,12,22.70
2015,06,28,03,13,22.60
2015,06,28,03,14,22.60
2015,06,28,03,15,22.50
2015,06,28,03,16,22.50
2015,06,28,03,17,22.40
2015,06,28,03,18,22.30
2015,06,28,03,19,22.30
2015,06,28,03,20,22.30
2015,06,28,03,21,22.20
2015,06,28,03,22,22.20
2015,06,28,03,23,22.20
2015,06,28,03,24,22.10
2015,06,28,03,25,22.10
2015,06,28,03,26,22.00
2015,06,28,03,27,22.00
2015,06,28,03,28,21.90
2015,06,28,03,29,21.80
2015,06,28,03,30,21.80
2015,06,28,03,31,21.70
2015,06,28,03,32,21.60
2015,06,28,03,33,21.60
2015,06,28,03,34,21.50
2015,06,28,03,35,21.40
2015,06,28,03,36,21.40
2015,06,28,03,37,21.30
2015,06,28,03,38,21.20
2015,06,28,03,39,21.20
2015,06,28,03,40,21.10
2015,06,28,03,41,21.10
2015,06,28,03,42,21.00
2015,06,28,03,43,20.90
2015,06,28,03,44,20.90
2015,06,28,03,45,20.80
2015,06,28,03,46,20.80
2015,06,28,03,47,20.70
2015,06,28,03,48,20.60
2015,06,28,03,49,20.50
2015,06,28,03,50,20.50
2015,06,28,03,51,20.40
2015,06,28,03,52,20.40
2015,06,28,03,53,20.30
2015,06,28,03,54,20.30
2015,06,28,03,55,20.20
2015,06,28,03,56,20.20
2015,06,28,03,57,20.10
2015,06,28,03,58,20.10
2015,06,28,03,59,20.00
2015,06,28,04,00,20.00
2015,06,28,04,01,19.90
2015,06,28,04,02,19.90
2015,06,28,04,03,19.80
2015,06,28,04,04,19.80
2015,06,28,04,05,19.70
2015,06,28,04,06,19.70
2015,06,28,04,07,19.70
2015,06,28,04,08,19.60
2015,06,28,04,09,19.60
2015,06,28,04,10,19.50
2015,06,28,04,11,19.50
2015,06,28,04,12,19.40
2015,06,28,04,13,19.40
2015,06,28,04,14,19.40
2015,06,28,04,15,19.30
2015,06,28,04,16,19.30
2015,06,28,04,17,19.30
2015,06,28,04,18,19.20
2015,06,28,04,19,19.20
2015,06,28,04,20,19.20
2015,06,28,04,21,19.10
2015,06,28,04,22,19.10
2015,06,28,04,23,19.10
2015,06,28,04,24,19.00
2015,06,28,04,25,19.00
2015,06,28,04,26,19.00
2015,06,28,04,27,18.90
2015,06,28,04,28,18.90
2015,06,28,04,29,18.90
2015,06,28,04,30,18.90
2015,06,28,04,31,18.90
2015,06,28,04,32,18.80
2015,06,28,04,33,18.80
2015,06,28,04,34,18.80
2015,06,28,04,35,18.80
2015,06,28,04,36,18.80
2015,06,28,04,37,18.80
2015,06,28,04,38,18.80
2015,06,28,04,39,18.80
2015,06,28,04,40,18.80
2015,06,28,04,41,18.70
2015,06,28,04,42,18.70
2015,06,28,04,43,18.70
2015,06,28,04,44,18.70
2015,06,28,04,45,18.70
2015,06,28,04,46,18.70
2015,06,28,04,47,18.60
2015,06,28,04,48,18.60
2015,06,28,04,49,18.60
2015,06,28,04,50,18.60
2015,06,28,04,51,18.60
2015,06,28,04,52,18.60
2015,06,28,04,53,18.60
2015,06,28,04,54,18.60
2015,06,28,04,55,18.50
2015,06,28,04,56,18.50
2015,06,28,04,57,18.40
2015,06,28,04,58,18.40
2015,06,28,04,59,18.40
2015,06,28,05,00,18.40
2015,06,28,05,01,18.30
2015,06,28,05,02,18.30
2015,06,28,05,03,18.30
2015,06,28,05,04,18.30
2015,06,28,05,05,18.20
2015,06,28,05,06,18.20
2015,06,28,05,07,18.20
2015,06,28,05,08,18.20
2015,06,28,05,09,18.10
2015,06,28,05,10,18.10
2015,06,28,05,11,18.10
2015,06,28,05,12,18.00
2015,06,28,05,13,18.00
2015,06,28,05,14,17.90
2015,06,28,05,15,17.90
2015,06,28,05,16,17.90
2015,06,28,05,17,17.80
2015,06,28,05,18,17.80
2015,06,28,05,19,17.80
2015,06,28,05,20,17.70
2015,06,28,05,21,17.70
2015,06,28,05,22,17.70
2015,06,28,05,23,17.60
2015,06,28,05,24,17.60
2015,06,28,05,25,17.50
2015,06,28,05,26,17.50
2015,06,28,05,27,17.40
2015,06,28,05,28,17.40
2015,06,28,05,29,17.40
2015,06,28,05,30,17.40
2015,06,28,05,31,17.30
2015,06,28,05,32,17.30
2015,06,28,05,33,17.30
2015,06,28,05,34,17.30
2015,06,28,05,35,17.30
2015,06,28,05,36,17.30
2015,06,28,05,37,17.30
2015,06,28,05,38,17.30
2015,06,28,05,39,17.30
2015,06,28,05,40,17.30
2015,06,28,05,41,17.30
2015,06,28,05,42,17.30
2015,06,28,05,43,17.20
2015,06,28,05,44,17.20
2015,06,28,05,45,17.20
2015,06,28,05,46,17.20
2015,06,28,05,47,17.20
2015,06,28,05,48,17.20
2015,06,28,05,49,17.20
2015,06,28,05,50,17.30
2015,06,28,05,51,17.30
2015,06,28,05,52,17.30
2015,06,28,05,53,17.40
2015,06,28,05,54,17.40
2015,06,28,05,55,17.40
2015,06,28,05,56,17.40
2015,06,28,05,57,17.50
2015,06,28,05,58,17.50
2015,06,28,05,59,17.60
2015,06,28,06,00,17.60
2015,06,28,06,01,17.60
2015,06,28,06,02,17.60
2015,06,28,06,03,17.70
2015,06,28,06,04,17.70
2015,06,28,06,05,17.70
2015,06,28,06,06,17.70
2015,06,28,06,07,17.70
2015,06,28,06,08,17.70
2015,06,28,06,09,17.80
2015,06,28,06,10,17.80
2015,06,28,06,11,17.90
2015,06,28,06,12,17.90
2015,06,28,06,13,18.00
2015,06,28,06,14,18.00
2015,06,28,06,15,18.00
2015,06,28,06,16,18.10
2015,06,28,06,17,18.10
2015,06,28,06,18,18.10
2015,06,28,06,19,18.10
2015,06,28,06,20,18.00
2015,06,28,06,21,18.00
2015,06,28,06,22,18.00
2015,06,28,06,23,18.00
2015,06,28,06,24,18.00
2015,06,28,06,25,18.10
2015,06,28,06,26,18.10
2015,06,28,06,27,18.10
2015,06,28,06,28,18.10
2015,06,28,06,29,18.30
2015,06,28,06,30,18.40
2015,06,28,06,31,18.50
2015,06,28,06,32,18.70
2015,06,28,06,33,18.80
2015,06,28,06,34,18.90
2015,06,28,06,35,18.90
2015,06,28,06,36,19.00
2015,06,28,06,37,19.10
2015,06,28,06,38,19.10
2015,06,28,06,39,19.20
2015,06,28,06,40,19.30
2015,06,28,06,41,19.30
2015,06,28,06,42,19.30
2015,06,28,06,43,19.30
2015,06,28,06,44,19.30
2015,06,28,06,45,19.30
2015,06,28,06,46,19.30
2015,06,28,06,47,19.30
2015,06,28,06,48,19.30
2015,06,28,06,49,19.30
2015,06,28,06,50,19.30
2015,06,28,06,51,19.30
2015,06,28,06,52,19.30
2015,06,28,06,53,19.30
2015,06,28,06,54,19.30
2015,06,28,06,55,19.30
2015,06,28,06,56,19.30
2015,06,28,06,57,19.40
2015,06,28,06,58,19.40
2015,06,28,06,59,19.40
2015,06,28,07,00,19.40
2015,06,28,07,01,19.40
2015,06,28,07,02,19.50
2015,06,28,07,03,19.50
2015,06,28,07,04,19.50
2015,06,28,07,05,19.50
2015,06,28,07,06,19.50
2015,06,28,07,07,19.50
2015,06,28,07,08,19.50
2015,06,28,07,09,19.60
2015,06,28,07,10,19.60
2015,06,28,07,11,19.70
2015,06,28,07,12,19.80
2015,06,28,07,13,19.80
2015,06,28,07,14,19.90
2015,06,28,07,15,19.90
2015,06,28,07,16,20.00
2015,06,28,07,17,20.10
2015,06,28,07,18,20.20
2015,06,28,07,19,20.20
2015,06,28,07,20,20.20
2015,06,28,07,21,20.30
2015,06,28,07,22,20.40
2015,06,28,07,23,20.50
2015,06,28,07,24,20.50
2015,06,28,07,25,20.60
2015,06,28,07,26,20.70
2015,06,28,07,27,20.70
2015,06,28,07,28,20.80
2015,06,28,07,29,20.90
2015,06,28,07,30,21.00
2015,06,28,07,31,21.10
2015,06,28,07,32,21.20
2015,06,28,07,33,21.20
2015,06,28,07,34,21.30
2015,06,28,07,35,21.40
2015,06,28,07,36,21.40
2015,06,28,07,37,21.50
2015,06,28,07,38,21.60
2015,06,28,07,39,21.60
2015,06,28,07,40,21.70
2015,06,28,07,41,21.80
2015,06,28,07,42,21.80
2015,06,28,07,43,21.90
2015,06,28,07,44,21.90
2015,06,28,07,45,21.90
2015,06,28,07,46,22.00
2015,06,28,07,47,22.00
2015,06,28,07,48,22.10
2015,06,28,07,49,22.10
2015,06,28,07,50,22.10
2015,06,28,07,51,22.10
2015,06,28,07,52,22.10
2015,06,28,07,53,22.10
2015,06,28,07,54,22.10
2015,06,28,07,55,22.10
2015,06,28,07,56,22.10
2015,06,28,07,57,22.10
2015,06,28,07,58,22.00
2015,06,28,07,59,22.00
2015,06,28,08,00,22.00
2015,06,28,08,01,22.00
2015,06,28,08,02,22.00
2015,06,28,08,03,22.00
2015,06,28,08,04,22.00
2015,06,28,08,05,22.00
2015,06,28,08,06,22.10
2015,06,28,08,07,22.10
2015,06,28,08,08,22.10
2015,06,28,08,09,22.20
2015,06,28,08,10,22.20
2015,06,28,08,11,22.20
2015,06,28,08,12,22.20
2015,06,28,08,13,22.20
2015,06,28,08,14,22.10
2015,06,28,08,15,22.10
2015,06,28,08,16,22.10
2015,06,28,08,17,22.10
2015,06,28,08,18,22.10
2015,06,28,08,19,22.20
2015,06,28,08,20,22.20
2015,06,28,08,21,22.30
2015,06,28,08,22,22.30
2015,06,28,08,23,22.30
2015,06,28,08,24,22.30
2015,06,28,08,25,22.40
2015,06,28,08,26,22.50
2015,06,28,08,27,22.50
2015,06,28,08,28,22.60
2015,06,28,08,29,22.70
2015,06,28,08,30,22.70
2015,06,28,08,31,22.80
2015,06,28,08,32,22.80
2015,06,28,08,33,22.90
2015,06,28,08,34,23.00
2015,06,28,08,35,23.10
2015,06,28,08,36,23.20
2015,06,28,08,37,23.30
2015,06,28,08,38,23.30
2015,06,28,08,39,23.40
2015,06,28,08,40,23.50
2015,06,28,08,41,23.50
2015,06,28,08,42,23.60
2015,06,28,08,43,23.60
2015,06,28,08,44,23.60
2015,06,28,08,45,23.70
2015,06,28,08,46,23.70
2015,06,28,08,47,23.70
2015,06,28,08,48,23.70
2015,06,28,08,49,23.80
2015,06,28,08,50,23.80
2015,06,28,08,51,23.80
2015,06,28,08,52,23.90
2015,06,28,08,53,23.90
2015,06,28,08,54,24.00
2015,06,28,08,55,24.00
2015,06,28,08,56,24.10
2015,06,28,08,57,24.10
2015,06,28,08,58,24.20
2015,06,28,08,59,24.20
2015,06,28,09,00,24.20
2015,06,28,09,01,24.20
2015,06,28,09,02,24.20
2015,06,28,09,03,24.20
2015,06,28,09,04,24.20
2015,06,28,09,05,24.10
2015,06,28,09,06,24.10
2015,06,28,09,07,24.10
2015,06,28,09,08,24.10
2015,06,28,09,09,24.10
2015,06,28,09,10,24.10
2015,06,28,09,11,24.20
2015,06,28,09,12,24.20
2015,06,28,09,13,24.20
2015,06,28,09,14,24.20
2015,06,28,09,15,24.20
2015,06,28,09,16,24.20
2015,06,28,09,17,24.20
2015,06,28,09,18,24.20
2015,06,28,09,19,24.20
2015,06,28,09,20,24.20
2015,06,28,09,21,24.20
2015,06,28,09,22,24.30
2015,06,28,09,23,24.30
2015,06,28,09,24,24.30
2015,06,28,09,25,24.40
2015,06,28,09,26,24.40
2015,06,28,09,27,24.40
2015,06,28,09,28,24.40
2015,06,28,09,29,24.40
2015,06,28,09,30,24.40
2015,06,28,09,31,24.40
2015,06,28,09,32,24.30
2015,06,28,09,33,24.30
2015,06,28,09,34,24.30
2015,06,28,09,35,24.30
2015,06,28,09,36,24.30
2015,06,28,09,37,24.30
2015,06,28,09,38,24.40
2015,06,28,09,39,24.30
2015,06,28,09,40,24.30
2015,06,28,09,41,24.30
2015,06,28,09,42,24.40
2015,06,28,09,43,24.40
2015,06,28,09,44,24.40
2015,06,28,09,45,24.40
2015,06,28,09,46,24.50
2015,06,28,09,47,24.50
2015,06,28,09,48,24.60
2015,06,28,09,49,24.60
2015,06,28,09,50,24.60
2015,06,28,09,51,24.70
2015,06,28,09,52,24.80
2015,06,28,09,53,24.80
2015,06,28,09,54,24.80
2015,06,28,09,55,24.80
2015,06,28,09,56,24.80
2015,06,28,09,57,24.80
2015,06,28,09,58,24.70
2015,06,28,09,59,24.80
2015,06,28,10,00,24.80
2015,06,28,10,01,24.80
2015,06,28,10,02,24.90
2015,06,28,10,03,24.90
2015,06,28,10,04,25.00
2015,06,28,10,05,25.00
2015,06,28,10,06,25.10
2015,06,28,10,07,25.10
2015,06,28,10,08,25.20
2015,06,28,10,09,25.30
2015,06,28,10,10,25.30
2015,06,28,10,11,25.40
2015,06,28,10,12,25.50
2015,06,28,10,13,25.50
2015,06,28,10,14,25.60
2015,06,28,10,15,25.60
2015,06,28,10,16,25.60
2015,06,28,10,17,25.60
2015,06,28,10,18,25.60
2015,06,28,10,19,25.70
2015,06,28,10,20,25.70
2015,06,28,10,21,25.60
2015,06,28,10,22,25.60
2015,06,28,10,23,25.60
2015,06,28,10,24,25.50
2015,06,28,10,25,25.40
2015,06,28,10,26,25.30
2015,06,28,10,27,25.20
2015,06,28,10,28,25.20
2015,06,28,10,29,25.10
2015,06,28,10,30,25.00
2015,06,28,10,31,24.90
2015,06,28,10,32,24.90
2015,06,28,10,33,24.80
2015,06,28,10,34,24.80
2015,06,28,10,35,24.80
2015,06,28,10,36,24.80
2015,06,28,10,37,24.90
2015,06,28,10,38,24.90
2015,06,28,10,39,25.00
2015,06,28,10,40,25.00
2015,06,28,10,41,25.00
2015,06,28,10,42,25.10
2015,06,28,10,43,25.10
2015,06,28,10,44,25.10
2015,06,28,10,45,25.10
2015,06,28,10,46,25.10
2015,06,28,10,47,25.10
2015,06,28,10,48,25.10
2015,06,28,10,49,25.20
2015,06,28,10,50,25.20
2015,06,28,10,51,25.10
2015,06,28,10,52,25.20
2015,06,28,10,53,25.20
2015,06,28,10,54,25.20
2015,06,28,10,55,25.20
2015,06,28,10,56,25.30
2015,06,28,10,57,25.30
2015,06,28,10,58,25.40
2015,06,28,10,59,25.40
2015,06,28,11,00,25.50
2015,06,28,11,01,25.50
2015,06,28,11,02,25.60
2015,06,28,11,03,25.60
2015,06,28,11,04,25.60
2015,06,28,11,05,25.70
2015,06,28,11,06,25.70
2015,06,28,11,07,25.80
2015,06,28,11,08,25.80
2015,06,28,11,09,25.90
2015,06,28,11,10,26.00
2015,06,28,11,11,26.00
2015,06,28,11,12,26.10
2015,06,28,11,13,26.20
2015,06,28,11,14,26.30
2015,06,28,11,15,26.30
2015,06,28,11,16,26.40
2015,06,28,11,17,26.50
2015,06,28,11,18,26.50
2015,06,28,11,19,26.60
2015,06,28,11,20,26.60
2015,06,28,11,21,26.70
2015,06,28,11,22,26.80
2015,06,28,11,23,26.90
2015,06,28,11,24,27.00
2015,06,28,11,25,27.10
2015,06,28,11,26,27.20
2015,06,28,11,27,27.30
2015,06,28,11,28,27.40
2015,06,28,11,29,27.50
2015,06,28,11,30,27.60
2015,06,28,11,31,27.60
2015,06,28,11,32,27.60
2015,06,28,11,33,27.60
2015,06,28,11,34,27.60
2015,06,28,11,35,27.60
2015,06,28,11,36,27.60
2015,06,28,11,37,27.60
2015,06,28,11,38,27.60
2015,06,28,11,39,27.70
2015,06,28,11,40,27.70
2015,06,28,11,41,27.70
2015,06,28,11,42,27.70
2015,06,28,11,43,27.70
2015,06,28,11,44,27.70
2015,06,28,11,45,27.80
2015,06,28,11,46,27.90
2015,06,28,11,47,27.90
2015,06,28,11,48,27.90
2015,06,28,11,49,27.90
2015,06,28,11,50,27.90
2015,06,28,11,51,27.90
2015,06,28,11,52,27.90
2015,06,28,11,53,27.90
2015,06,28,11,54,27.90
2015,06,28,11,55,27.90
2015,06,28,11,56,27.80
2015,06,28,11,57,27.90
2015,06,28,11,58,28.00
2015,06,28,11,59,28.20
2015,06,28,12,00,28.40
2015,06,28,12,01,28.50
2015,06,28,12,02,28.60
2015,06,28,12,03,28.60
2015,06,28,12,04,28.50
2015,06,28,12,05,28.50
2015,06,28,12,06,28.60
2015,06,28,12,07,28.60
2015,06,28,12,08,28.50
2015,06,28,12,09,28.40
2015,06,28,12,10,28.20
2015,06,28,12,11,28.10
2015,06,28,12,12,27.90
2015,06,28,12,13,27.80
2015,06,28,12,14,27.60
2015,06,28,12,15,27.60
2015,06,28,12,16,27.50
2015,06,28,12,17,27.50
2015,06,28,12,18,27.60
2015,06,28,12,19,27.50
2015,06,28,12,20,27.50
2015,06,28,12,21,27.40
2015,06,28,12,22,27.30
2015,06,28,12,23,27.20
2015,06,28,12,24,27.20
2015,06,28,12,25,27.10
2015,06,28,12,26,27.10
2015,06,28,12,27,27.00
2015,06,28,12,28,27.00
2015,06,28,12,29,26.90
2015,06,28,12,30,26.90
2015,06,28,12,31,26.80
2015,06,28,12,32,26.80
2015,06,28,12,33,26.80
2015,06,28,12,34,26.70
2015,06,28,12,35,26.70
2015,06,28,12,36,26.80
2015,06,28,12,37,26.80
2015,06,28,12,38,26.80
2015,06,28,12,39,26.90
2015,06,28,12,40,26.90
2015,06,28,12,41,27.00
2015,06,28,12,42,27.10
2015,06,28,12,43,27.10
2015,06,28,12,44,27.20
2015,06,28,12,45,27.20
2015,06,28,12,46,27.20
2015,06,28,12,47,27.10
2015,06,28,12,48,27.10
2015,06,28,12,49,27.10
2015,06,28,12,50,27.10
2015,06,28,12,51,27.10
2015,06,28,12,52,27.10
2015,06,28,12,53,27.20
2015,06,28,12,54,27.20
2015,06,28,12,55,27.30
2015,06,28,12,56,27.30
2015,06,28,12,57,27.40
2015,06,28,12,58,27.40
2015,06,28,12,59,27.50
2015,06,28,13,00,27.50
2015,06,28,13,01,27.60
2015,06,28,13,02,27.70
2015,06,28,13,03,27.80
2015,06,28,13,04,27.80
2015,06,28,13,05,27.80
2015,06,28,13,06,27.80
2015,06,28,13,07,27.80
2015,06,28,13,08,27.80
2015,06,28,13,09,27.90
2015,06,28,13,10,27.90
2015,06,28,13,11,27.90
2015,06,28,13,12,28.00
2015,06,28,13,13,28.10
2015,06,28,13,14,28.30
2015,06,28,13,15,28.50
2015,06,28,13,16,28.60
2015,06,28,13,17,28.70
2015,06,28,13,18,28.80
2015,06,28,13,19,28.90
2015,06,28,13,20,29.00
2015,06,28,13,21,29.10
2015,06,28,13,22,29.20
2015,06,28,13,23,29.30
2015,06,28,13,24,29.30
2015,06,28,13,25,29.30
2015,06,28,13,26,29.30
2015,06,28,13,27,29.20
2015,06,28,13,28,29.20
2015,06,28,13,29,29.20
2015,06,28,13,30,29.20
2015,06,28,13,31,29.20
2015,06,28,13,32,29.20
2015,06,28,13,33,29.10
2015,06,28,13,34,29.10
2015,06,28,13,35,29.00
2015,06,28,13,36,29.00
2015,06,28,13,37,29.00
2015,06,28,13,38,29.00
2015,06,28,13,39,29.10
2015,06,28,13,40,29.10
2015,06,28,13,41,29.10
2015,06,28,13,42,29.10
2015,06,28,13,43,29.20
2015,06,28,13,44,29.20
2015,06,28,13,45,29.20
2015,06,28,13,46,29.30
2015,06,28,13,47,29.30
2015,06,28,13,48,29.30
2015,06,28,13,49,29.30
2015,06,28,13,50,29.30
2015,06,28,13,51,29.40
2015,06,28,13,52,29.40
2015,06,28,13,53,29.40
2015,06,28,13,54,29.40
2015,06,28,13,55,29.30
2015,06,28,13,56,29.30
2015,06,28,13,57,29.40
2015,06,28,13,58,29.30
2015,06,28,13,59,29.30
2015,06,28,14,00,29.30
2015,06,28,14,01,29.30
2015,06,28,14,02,29.40
2015,06,28,14,03,29.40
2015,06,28,14,04,29.50
2015,06,28,14,05,29.50
2015,06,28,14,06,29.50
2015,06,28,14,07,29.60
2015,06,28,14,08,29.60
2015,06,28,14,09,29.60
2015,06,28,14,10,29.60
2015,06,28,14,11,29.60
2015,06,28,14,12,29.60
2015,06,28,14,13,29.70
2015,06,28,14,14,29.80
2015,06,28,14,15,29.80
2015,06,28,14,16,29.80
2015,06,28,14,17,29.90
2015,06,28,14,18,30.00
2015,06,28,14,19,30.10
2015,06,28,14,20,30.10
2015,06,28,14,21,30.20
2015,06,28,14,22,30.20
2015,06,28,14,23,30.20
2015,06,28,14,24,30.30
2015,06,28,14,25,30.30
2015,06,28,14,26,30.30
2015,06,28,14,27,30.40
2015,06,28,14,28,30.30
2015,06,28,14,29,30.40
2015,06,28,14,30,30.40
2015,06,28,14,31,30.40
2015,06,28,14,32,30.40
2015,06,28,14,33,30.40
2015,06,28,14,34,30.50
2015,06,28,14,35,30.50
2015,06,28,14,36,30.60
2015,06,28,14,37,30.60
2015,06,28,14,38,30.70
2015,06,28,14,39,30.70
2015,06,28,14,40,30.70
2015,06,28,14,41,30.70
2015,06,28,14,42,30.80
2015,06,28,14,43,30.70
2015,06,28,14,44,30.70
2015,06,28,14,45,30.70
2015,06,28,14,46,30.80
2015,06,28,14,47,30.80
2015,06,28,14,48,30.80
2015,06,28,14,49,30.80
2015,06,28,14,50,30.80
2015,06,28,14,51,30.90
2015,06,28,14,52,30.90
2015,06,28,14,53,31.00
2015,06,28,14,54,31.10
2015,06,28,14,55,31.10
2015,06,28,14,56,31.20
2015,06,28,14,57,31.20
2015,06,28,14,58,31.30
2015,06,28,14,59,31.30
2015,06,28,15,00,31.30
2015,06,28,15,01,31.40
2015,06,28,15,02,31.40
2015,06,28,15,03,31.40
2015,06,28,15,04,31.40
2015,06,28,15,05,31.40
2015,06,28,15,06,31.40
2015,06,28,15,07,31.60
2015,06,28,15,08,31.80
2015,06,28,15,09,31.80
2015,06,28,15,10,31.80
2015,06,28,15,11,31.80
2015,06,28,15,12,31.70
2015,06,28,15,13,31.60
2015,06,28,15,14,31.50
2015,06,28,15,15,31.50
2015,06,28,15,16,31.40
2015,06,28,15,17,31.50
2015,06,28,15,18,31.50
2015,06,28,15,19,31.50
2015,06,28,15,20,31.60
2015,06,28,15,21,31.60
2015,06,28,15,22,31.70
2015,06,28,15,23,31.80
2015,06,28,15,24,31.80
2015,06,28,15,25,31.90
2015,06,28,15,26,32.00
2015,06,28,15,27,32.10
2015,06,28,15,28,32.10
2015,06,28,15,29,32.20
2015,06,28,15,30,32.30
2015,06,28,15,31,32.30
2015,06,28,15,32,32.40
2015,06,28,15,33,32.40
2015,06,28,15,34,32.40
2015,06,28,15,35,32.40
2015,06,28,15,36,32.40
2015,06,28,15,37,32.40
2015,06,28,15,38,32.40
2015,06,28,15,39,32.30
2015,06,28,15,40,32.30
2015,06,28,15,41,32.20
2015,06,28,15,42,32.20
2015,06,28,15,43,32.10
2015,06,28,15,44,32.10
2015,06,28,15,45,32.10
2015,06,28,15,46,32.00
2015,06,28,15,47,32.00
2015,06,28,15,48,31.90
2015,06,28,15,49,31.90
2015,06,28,15,50,31.90
2015,06,28,15,51,31.90
2015,06,28,15,52,31.90
2015,06,28,15,53,31.90
2015,06,28,15,54,32.00
2015,06,28,15,55,32.00
2015,06,28,15,56,31.90
2015,06,28,15,57,31.90
2015,06,28,15,58,31.90
2015,06,28,15,59,31.90
2015,06,28,16,00,31.80
2015,06,28,16,01,31.70
2015,06,28,16,02,31.60
2015,06,28,16,03,31.40
2015,06,28,16,04,31.20
2015,06,28,16,05,31.00
2015,06,28,16,06,30.80
2015,06,28,16,07,30.60
2015,06,28,16,08,30.40
2015,06,28,16,09,30.30
2015,06,28,16,10,30.10
2015,06,28,16,11,30.00
2015,06,28,16,12,29.90
2015,06,28,16,13,29.80
2015,06,28,16,14,29.70
2015,06,28,16,15,29.60
2015,06,28,16,16,29.60
2015,06,28,16,17,29.50
2015,06,28,16,18,29.50
2015,06,28,16,19,29.40
2015,06,28,16,20,29.30
2015,06,28,16,21,29.30
2015,06,28,16,22,29.20
2015,06,28,16,23,29.10
2015,06,28,16,24,29.10
2015,06,28,16,25,29.10
2015,06,28,16,26,29.10
2015,06,28,16,27,29.10
2015,06,28,16,28,29.10
2015,06,28,16,29,29.10
2015,06,28,16,30,29.10
2015,06,28,16,31,29.10
2015,06,28,16,32,29.00
2015,06,28,16,33,29.00
2015,06,28,16,34,28.90
2015,06,28,16,35,28.90
2015,06,28,16,36,28.80
2015,06,28,16,37,28.70
2015,06,28,16,38,28.60
2015,06,28,16,39,28.50
2015,06,28,16,40,28.40
2015,06,28,16,41,28.30
2015,06,28,16,42,28.30
2015,06,28,16,43,28.30
2015,06,28,16,44,28.20
2015,06,28,16,45,28.20
2015,06,28,16,46,28.20
2015,06,28,16,47,28.20
2015,06,28,16,48,28.10
2015,06,28,16,49,28.10
2015,06,28,16,50,28.00
2015,06,28,16,51,27.90
2015,06,28,16,52,27.80
2015,06,28,16,53,27.80
2015,06,28,16,54,27.70
2015,06,28,16,55,27.50
2015,06,28,16,56,27.40
2015,06,28,16,57,27.30
2015,06,28,16,58,27.20
2015,06,28,16,59,27.10
2015,06,28,17,00,27.00
2015,06,28,17,01,26.90
2015,06,28,17,02,26.80
2015,06,28,17,03,26.70
2015,06,28,17,04,26.60
2015,06,28,17,05,26.40
2015,06,28,17,06,26.30
2015,06,28,17,07,26.30
2015,06,28,17,08,26.20
2015,06,28,17,09,26.10
2015,06,28,17,10,26.00
2015,06,28,17,11,26.00
2015,06,28,17,12,25.90
2015,06,28,17,13,25.90
2015,06,28,17,14,25.90
2015,06,28,17,15,25.90
2015,06,28,17,16,25.90
2015,06,28,17,17,25.90
2015,06,28,17,18,25.90
2015,06,28,17,19,25.80